This demonstration page uses our WeatherBlox Daily Observations layout. Learn more.

Left ArrowRight Arrow

Hourly Observations for April 5, 2018

Temp ( °F °C ) Dew Point ( °F °C ) Humidity (%) Winds ( mph kmh ) Pressure ( in mb ) Visibility ( mi km ) Precip ( " mm )
12:53 am 00:53 Clear 37 2.8 24 -4.4 59 59 E 8 13 30.03 1017 10 16 0.00 0.00
1:53 am 01:53 Clear 36 2.2 24 -4.4 62 62 SSE 8 13 30.02 1017 10 16 0.00 0.00
2:53 am 02:53 Clear 30 -1.1 24 -4.4 79 79 ENE 6 9 30.02 1017 10 16 0.00 0.00
3:53 am 03:53 Clear 30 -1.1 23 -5 75 75 Calm 30.00 1016 10 16 0.00 0.00
4:53 am 04:53 Clear 28 -2.2 24 -4.4 85 85 Calm 30.00 1016 10 16 0.00 0.00
5:53 am 05:53 Clear 25 -3.9 22 -5.6 88 88 N 7 11 30.01 1016 10 16 0.00 0.00
6:53 am 06:53 Clear 27 -2.8 24 -4.4 89 89 NNE 8 13 30.03 1017 10 16 0.00 0.00
7:53 am 07:53 Sunny 28 -2.2 25 -3.9 88 88 NNE 5 7 30.05 1018 10 16 0.00 0.00
8:53 am 08:53 Sunny 32 0 26 -3.3 79 79 NE 10 17 30.03 1017 10 16 0.00 0.00
9:53 am 09:53 Sunny 36 2.2 26 -3.3 67 67 NE 10 17 30.04 1017 10 16 0.00 0.00
10:53 am 10:53 Sunny 41 5 28 -2.2 60 60 NE 9 15 30.03 1017 10 16 0.00 0.00
11:53 am 11:53 Sunny 49 9.4 30 -1.1 48 48 NE 10 17 30.02 1017 10 16 0.00 0.00
12:53 pm 12:53 Sunny 53 11.7 29 -1.7 40 40 NE 9 15 30.01 1016 10 16 0.00 0.00
1:53 pm 13:53 Sunny 57 13.9 29 -1.7 34 34 ENE 12 19 30.00 1016 10 16 0.00 0.00
2:53 pm 14:53 Sunny 59 15 29 -1.7 32 32 NE 10 17 29.98 1015 10 16 0.00 0.00
3:53 pm 15:53 Sunny 60 15.6 29 -1.7 31 31 NE 10 17 29.98 1015 10 16 0.00 0.00
4:53 pm 16:53 Sunny 60 15.6 28 -2.2 30 30 N 9 15 29.98 1015 10 16 0.00 0.00
5:53 pm 17:53 Sunny 60 15.6 30 -1.1 32 32 NNE 12 19 29.98 1015 10 16 0.00 0.00
6:53 pm 18:53 Sunny 55 12.8 31 -0.6 40 40 NE 20 31 30.00 1016 10 16 0.00 0.00
7:53 pm 19:53 Sunny 50 10 30 -1.1 46 46 ENE 16 26 30.02 1017 10 16 0.00 0.00
8:53 pm 20:53 Clear 45 7.2 29 -1.7 54 54 NE 12 19 30.04 1017 10 16 0.00 0.00
9:53 pm 21:53 Mostly Clear 43 6.1 29 -1.7 58 58 NE 12 19 30.05 1018 10 16 0.00 0.00
10:53 pm 22:53 Cloudy 42 5.6 28 -2.2 58 58 NE 10 17 30.06 1018 10 16 0.00 0.00
11:53 pm 23:53 Cloudy 41 5 28 -2.2 60 60 NE 8 13 30.06 1018 10 16 0.00 0.00

Powered by AerisWeather